Weather History for Gustavus, AK

Change the Weather History Date:

Friday, June 28, 2013

  Actual Average Record
Temperature  
Mean Temperature 60 °F -  
Max Temperature 68 °F 65 °F 75 °F (1990)
Min Temperature 51 °F 46 °F 32 °F (1971)
Degree Days  
Heating Degree Days 6    
Growing Degree Days 10 (Base 50)    
Moisture  
Dew Point 52 °F    
Average Humidity 77    
Maximum Humidity 100    
Minimum Humidity 52    
Precipitation  
Precipitation 0.00 in - - ()
Sea Level Pressure  
Sea Level Pressure 30.16 in    
Wind  
Wind Speed 3 mph (West)    
Max Wind Speed 12 mph    
Max Gust Speed -    
Visibility 8 miles    
Events      
Averages and records for this station are not official NWS values.
T = Trace of Precipitation, MM = Missing Value Source: NWS Daily Summary

Daily Weather History Graph

Daily Weather History Graph

Search for Another Location

Airport:

Trip Planner

Search our weather history database for the weather conditions in past years. The results will help you decide how hot, cold, wet, or windy it might be!

Date:

Astronomy

Jun. 28, 2013 Rise Set
Actual Time 3:58 AM AKDT 10:13 PM AKDT
Civil Twilight 2:40 AM AKDT 11:31 PM AKDT
Nautical Twilight Sun does not rise Sun does not rise
Astronomical Twilight Sun does not rise Sun does not rise
Moon No Moon Rise 11:52 AM AKDT (6/28)
Length of Visible Light 20h 50m
Length of Day
18h 14m
Waning Gibbous, 65% of the Moon is Illuminated
Jun 28
Waning Gibbous
Jun 29
Last Quarter
Jul 7
New
Jul 15
First Quarter
Jul 22
Full

Hourly Weather History & Observations

Time (AKDT) Temp. Dew Point Humidity Pressure Visibility Wind Dir Wind Speed Gust Speed Precip Events Conditions
12:16 AM - - N/A% 30.18 in 10.0 mi NNW 4.6 mph - N/A   Overcast
12:36 AM - - N/A% 30.17 in 10.0 mi NW 4.6 mph - N/A   Mostly Cloudy
12:56 AM - - N/A% 30.18 in 10.0 mi NW 5.8 mph - N/A   Overcast
1:16 AM - - N/A% 30.18 in 10.0 mi North 4.6 mph - N/A   Mostly Cloudy
1:36 AM - - N/A% 30.17 in 10.0 mi NW 3.5 mph - N/A   Partly Cloudy
1:56 AM - - N/A% 30.18 in 10.0 mi Calm Calm - N/A   Clear
2:16 AM - - N/A% 30.18 in 10.0 mi Calm Calm - N/A   Clear
2:36 AM - - N/A% 30.18 in 10.0 mi Calm Calm - N/A   Clear
2:56 AM 51.8 °F 50.0 °F 94% 30.19 in 10.0 mi Calm Calm - N/A   Mostly Cloudy
3:16 AM 51.8 °F 50.0 °F 94% 30.19 in 10.0 mi Calm Calm - N/A   Overcast
3:36 AM 51.8 °F 50.0 °F 94% 30.19 in 3.0 mi Calm Calm - N/A   Overcast
3:56 AM 51.8 °F 50.0 °F 94% 30.19 in 0.5 mi Calm Calm - N/A   Overcast
4:16 AM 51.8 °F 50.0 °F 94% 30.20 in 0.8 mi Calm Calm - N/A   Overcast
4:36 AM 51.8 °F 50.0 °F 94% 30.20 in 1.2 mi Calm Calm - N/A   Overcast
4:56 AM 51.8 °F 50.0 °F 94% 30.20 in 0.2 mi Calm Calm - N/A   Overcast
5:16 AM 51.8 °F 51.8 °F 100% 30.20 in 0.2 mi Calm Calm - N/A   Overcast
5:36 AM 51.8 °F 51.8 °F 100% 30.21 in 0.5 mi Calm Calm - N/A   Overcast
5:56 AM 51.8 °F 51.8 °F 100% 30.21 in 0.5 mi SE 4.6 mph - N/A   Overcast
6:16 AM 53.6 °F 51.8 °F 94% 30.20 in 0.2 mi Calm Calm - N/A   Overcast
6:36 AM 53.6 °F 51.8 °F 94% 30.21 in 0.2 mi Calm Calm - N/A   Overcast
6:56 AM 53.6 °F 51.8 °F 94% 30.21 in 0.2 mi South 3.5 mph - N/A   Overcast
7:16 AM 53.6 °F 51.8 °F 94% 30.21 in 1.0 mi Calm Calm - N/A   Overcast
7:36 AM 53.6 °F 51.8 °F 94% 30.21 in 4.0 mi Calm Calm - N/A   Overcast
7:56 AM 53.6 °F 51.8 °F 94% 30.21 in 8.0 mi Calm Calm - N/A   Overcast
8:16 AM 53.6 °F 51.8 °F 94% 30.22 in 7.0 mi Calm Calm - N/A   Overcast
8:36 AM 53.6 °F 51.8 °F 94% 30.22 in 6.0 mi Calm Calm - N/A   Overcast
8:56 AM 55.4 °F 51.8 °F 88% 30.22 in 10.0 mi West 3.5 mph - N/A   Overcast
9:16 AM 55.4 °F 51.8 °F 88% 30.22 in 10.0 mi Calm Calm - N/A   Overcast
9:36 AM 55.4 °F 53.6 °F 94% 30.22 in 10.0 mi Calm Calm - N/A   Overcast
9:56 AM 55.4 °F 53.6 °F 94% 30.21 in 10.0 mi Calm Calm - N/A   Overcast
10:16 AM - - N/A% 30.21 in 10.0 mi Calm Calm - N/A   Overcast
10:36 AM - - N/A% 30.21 in 10.0 mi SSE 3.5 mph - N/A   Overcast
10:56 AM 57.2 °F 53.6 °F 88% 30.21 in 10.0 mi Calm Calm - N/A   Overcast
11:16 AM - - N/A% 30.21 in 10.0 mi ESE 3.5 mph - N/A   Overcast
11:36 AM - - N/A% 30.21 in 10.0 mi Calm Calm - N/A   Overcast
11:56 AM - - N/A% 30.21 in 10.0 mi East 3.5 mph - N/A   Overcast
12:16 PM 60.8 °F 55.4 °F 82% 30.21 in 10.0 mi Calm Calm - N/A   Scattered Clouds
12:36 PM 62.6 °F 55.4 °F 77% 30.20 in 10.0 mi Calm Calm - N/A   Partly Cloudy
12:56 PM 64.4 °F 53.6 °F 68% 30.20 in 10.0 mi Calm Calm - N/A   Partly Cloudy
1:16 PM 64.4 °F 55.4 °F 73% 30.19 in 10.0 mi SW 4.6 mph - N/A   Clear
1:36 PM 64.4 °F 57.2 °F 77% 30.18 in 10.0 mi SW 6.9 mph - N/A   Clear
1:56 PM 64.4 °F 57.2 °F 77% 30.18 in 10.0 mi SW 5.8 mph - N/A   Clear
2:16 PM 64.4 °F 57.2 °F 77% 30.17 in 10.0 mi SSW 9.2 mph - N/A   Clear
2:36 PM 64.4 °F 57.2 °F 77% 30.17 in 10.0 mi SW 8.1 mph - N/A   Clear
2:56 PM 66.2 °F 57.2 °F 73% 30.16 in 10.0 mi SW 9.2 mph - N/A   Clear
3:16 PM 66.2 °F 55.4 °F 68% 30.16 in 10.0 mi SW 6.9 mph - N/A   Partly Cloudy
3:36 PM 64.4 °F 53.6 °F 68% 30.15 in 10.0 mi SSW 11.5 mph - N/A   Partly Cloudy
3:56 PM 64.4 °F 55.4 °F 73% 30.14 in 10.0 mi SW 10.4 mph - N/A   Clear
4:16 PM 66.2 °F 55.4 °F 68% 30.13 in 10.0 mi SSW 10.4 mph - N/A   Clear
4:36 PM 66.2 °F 55.4 °F 68% 30.13 in 10.0 mi SW 8.1 mph - N/A   Clear
4:56 PM 68.0 °F 51.8 °F 56% 30.13 in 10.0 mi West 9.2 mph - N/A   Clear
5:16 PM 66.2 °F 51.8 °F 60% 30.12 in 10.0 mi SW 9.2 mph - N/A   Clear
5:36 PM 66.2 °F 55.4 °F 68% 30.12 in 10.0 mi SW 8.1 mph - N/A   Clear
5:56 PM 68.0 °F 50.0 °F 52% 30.11 in 10.0 mi West 3.5 mph - N/A   Clear
6:16 PM 68.0 °F 51.8 °F 56% 30.10 in 10.0 mi WNW 5.8 mph - N/A   Clear
6:36 PM 68.0 °F 51.8 °F 56% 30.09 in 10.0 mi West 6.9 mph - N/A   Clear
6:56 PM 66.2 °F 51.8 °F 60% 30.09 in 10.0 mi NW 8.1 mph - N/A   Clear
7:16 PM 66.2 °F 48.2 °F 52% 30.08 in 10.0 mi NNW 6.9 mph - N/A   Clear
7:36 PM 66.2 °F 48.2 °F 52% 30.08 in 10.0 mi WNW 6.9 mph - N/A   Clear
7:56 PM 66.2 °F 50.0 °F 56% 30.08 in 10.0 mi NW 6.9 mph - N/A   Clear
8:16 PM 64.4 °F 48.2 °F 56% 30.08 in 10.0 mi WNW 6.9 mph - N/A   Clear
8:36 PM 64.4 °F 48.2 °F 56% 30.08 in 10.0 mi WNW 5.8 mph - N/A   Clear
8:56 PM 62.6 °F 48.2 °F 59% 30.08 in 10.0 mi WNW 6.9 mph - N/A   Clear
9:16 PM 62.6 °F 48.2 °F 59% 30.07 in 10.0 mi NW 6.9 mph - N/A   Clear
9:36 PM 60.8 °F 48.2 °F 63% 30.07 in 10.0 mi NW 4.6 mph - N/A   Clear
9:56 PM 60.8 °F 48.2 °F 63% 30.06 in 10.0 mi NW 3.5 mph - N/A   Clear
10:16 PM 59.0 °F 50.0 °F 72% 30.06 in 10.0 mi Calm Calm - N/A   Clear
10:36 PM 57.2 °F 48.2 °F 72% 30.06 in 10.0 mi Calm Calm - N/A   Clear
10:56 PM - - N/A% 30.06 in 10.0 mi WSW 3.5 mph - N/A   Clear
11:16 PM - - N/A% 30.05 in 10.0 mi West 4.6 mph - N/A   Clear
11:36 PM - - N/A% 30.05 in 10.0 mi Calm Calm - N/A   Clear
11:56 PM - - N/A% 30.05 in 10.0 mi Calm Calm - N/A   Clear